TimeCET,TemperatureF,Dew PointF,Humidity,Sea Level PressureIn,VisibilityMPH,Wind Direction,Wind SpeedMPH,Gust SpeedMPH,PrecipitationIn,Events,Conditions,WindDirDegrees,DateUTC
12:55 AM,60.8,53.6,77,29.89,6.2,WNW,10.4,-,N/A,,Partly Cloudy,300,2012-11-05 23:55:00
1:00 AM,61,54,72,29.91,9,WNW,10.4,,,,Scattered Clouds,300,2012-11-06 00:00:00
1:55 AM,60.8,53.6,77,29.89,6.2,WNW,11.5,-,N/A,,Partly Cloudy,290,2012-11-06 00:55:00
2:55 AM,59.0,55.4,88,29.92,6.2,WNW,2.3,-,N/A,,Partly Cloudy,300,2012-11-06 01:55:00
3:55 AM,57.2,53.6,88,29.89,-9999.0,ENE,2.3,-,N/A,,Clear,70,2012-11-06 02:55:00
4:00 AM,57,54,86,29.91,9,ENE,2.3,,,,,70,2012-11-06 03:00:00
4:55 AM,57.2,53.6,88,29.89,-9999.0,East,3.5,-,N/A,,Clear,90,2012-11-06 03:55:00
5:55 AM,57.2,53.6,88,29.92,-9999.0,East,6.9,-,N/A,,Clear,90,2012-11-06 04:55:00
7:00 AM,57,53,80,29.94,9,East,6.9,,,,Mostly Cloudy,90,2012-11-06 06:00:00
7:55 AM,57.2,53.6,88,29.95,6.2,East,8.1,-,N/A,,Scattered Clouds,90,2012-11-06 06:55:00
10:00 AM,63,56,71,29.98,9,SE,6.9,,,,Scattered Clouds,130,2012-11-06 09:00:00
10:55 AM,66.2,55.4,68,29.98,6.2,SSE,4.6,-,N/A,,Scattered Clouds,150,2012-11-06 09:55:00
12:55 PM,64.4,55.4,73,29.98,6.2,West,9.2,-,N/A,,Scattered Clouds,260,2012-11-06 11:55:00
1:00 PM,65,55,62,29.98,12,West,9.2,,,,Partly Cloudy,260,2012-11-06 12:00:00
1:55 PM,64.4,53.6,68,29.98,6.2,WSW,9.2,-,N/A,,Scattered Clouds,250,2012-11-06 12:55:00
2:55 PM,62.6,51.8,68,29.98,6.2,WSW,11.5,-,N/A,,Scattered Clouds,240,2012-11-06 13:55:00
4:00 PM,62,53,65,29.99,11,,1.2,,,,Partly Cloudy,,2012-11-06 15:00:00
4:55 PM,60.8,55.4,82,29.98,6.2,North,4.6,-,N/A,,Partly Cloudy,360,2012-11-06 15:55:00
5:55 PM,57.2,53.6,88,29.98,6.2,NNE,3.5,-,N/A,,Partly Cloudy,20,2012-11-06 16:55:00
6:55 PM,57.2,53.6,88,30.01,6.2,NNE,4.6,-,N/A,,Partly Cloudy,20,2012-11-06 17:55:00
7:00 PM,58,54,83,30.02,9,NNE,4.6,,,,Scattered Clouds,20,2012-11-06 18:00:00
7:55 PM,57.2,53.6,88,30.01,6.2,NNE,4.6,-,N/A,,Partly Cloudy,30,2012-11-06 18:55:00
8:55 PM,57.2,53.6,88,30.04,6.2,ESE,6.9,-,N/A,,Partly Cloudy,120,2012-11-06 19:55:00
9:55 PM,57.2,51.8,82,30.04,6.2,East,6.9,-,N/A,,Partly Cloudy,80,2012-11-06 20:55:00
10:00 PM,58,52,75,30.05,9,East,6.9,,,,Scattered Clouds,80,2012-11-06 21:00:00
10:55 PM,59.0,51.8,77,30.04,6.2,East,6.9,-,N/A,,Scattered Clouds,80,2012-11-06 21:55:00
11:55 PM,59.0,51.8,77,30.04,6.2,East,6.9,-,N/A,,Partly Cloudy,90,2012-11-06 22:55:00